Location: Napier
(39.4830°S, 176.9170°E)
Time: 05:08:19
(UTC+12:00)

ISS - Visible Passes

Search period start: 15 April 2024 00:00
Search period end: 25 April 2024 00:00
Orbit: 413 x 419 km, 51.6° (Epoch: 14 April)

Date Brightness Start Highest point End Pass type
(mag) Time Alt. Az. Time Alt. Az. Time Alt. Az.
15 Apr -3.6 18:44:05 10° NW 18:47:26 56° NE 18:49:18 23° ESE visible
15 Apr -0.4 20:21:36 10° W 20:22:13 13° WSW 20:22:13 13° WSW visible
16 Apr -2.3 19:32:30 10° W 19:35:38 32° SSW 19:35:53 32° SSW visible
17 Apr -3.0 18:43:35 10° WNW 18:46:55 50° SSW 18:49:26 16° SE visible
17 Apr -0.2 20:22:18 10° SW 20:22:20 10° SW 20:22:20 10° SW visible
18 Apr -1.4 19:32:55 10° WSW 19:35:23 18° SSW 19:35:44 18° SSW visible
19 Apr -1.8 18:43:38 10° W 18:46:28 24° SSW 18:49:03 12° SSE visible
20 Apr -1.0 19:33:33 10° SW 19:35:08 13° S 19:35:10 13° S visible
21 Apr -1.2 18:44:01 10° SW 18:46:06 15° SSW 18:48:10 10° SSE visible
22 Apr -0.8 19:33:53 10° SSW 19:34:17 11° S 19:34:17 11° S visible
23 Apr -1.1 18:44:29 10° SSW 18:45:43 11° S 18:46:56 10° SSE visible
24 Apr -1.2 17:54:53 10° SW 17:56:32 13° SSW 17:58:13 10° SSE visible
24 Apr -0.8 19:33:01 10° SSW 19:33:13 10° SSW 19:33:13 10° SSW visible
